LGSMLFRQ

Guest
Details From LGSM - Samos
To LFRQ - Quimper Pluguffan
Flight Number -
Tags Decoded
Created
Modified
Stats Distance 1,609 nm / 2,980 km
Max Altitude 0 ft / 0 m
Waypoints 3
Social Downloads 1
Likes 0
Share VATSIM

Download

Looking for another format? Having issues loading an existing format? Contact us
Advertisement - Login to hide

Notes

Decoded

Route

SAM MARUK QPR

ID Type Via Altitude Latitude Longitude Leg Dist Tot Dist Heading (true) Name
O SAM VOR - 0 ft / 0 m 37.68662˚ 26.90708˚ - 0 nm - SAMOS VOR-DME
MARUK FIX - 0 ft / 0 m 50.24639˚ -2.07222˚ 1448 nm 1448 nm 311° / 290° -
O QPR VOR - 0 ft / 0 m 47.95728˚ -4.18472˚ 160 nm 1609 nm 212° / 210° QUIMPER PLUGUFFAN VOR-DME

Altitude Profile

Advertisement - Login to hide

Weather


0- 5 10 15 20 25 30 35+ Temperature / ° C

Clouds and Precipitation
Forecast for 2018-05-27 12:00 UTC. Updated 5 hours ago

Ground ~20,000 ft ~40,000 ft Winds

LGSM

Details ICAO LGSM (SMI)
Name SAMOS
Region Greece
Timezone Europe/Athens (UTC+3.0)
Stats Elevation 19 ft / 6 m (AMSL)
Location 37.689012° 26.911123°
Runways 1
Magnetic Variation 4.845° E

METAR

LGSM 271520Z 01010KT 9999 FEW018 SCT030 25/17 Q1011

Decode

TAF

Not found

Departure Runways

ID Width Length Bearing (true) Bearing (mag) Surface Threshold Offset Overrun Length
09 148 ft / 45 m 6,690 ft / 2,039 m 94.02° 89.18° Asphalt 230 ft / 70 m 0 ft / 0 m
27 148 ft / 45 m 6,690 ft / 2,039 m 274.03° 269.19° Asphalt 0 ft / 0 m 0 ft / 0 m

LFRQ

Details ICAO LFRQ (UIP)
Name Quimper Pluguffan
Region France
Timezone Europe/Paris (UTC+2.0)
Stats Elevation 297 ft / 91 m (AMSL)
Location 47.972777° -4.171559°
Runways 2
Magnetic Variation 1.372° W

METAR

LFRQ 271530Z AUTO 18006KT 140V200 9999 SCT018 BKN025 BKN031 19/14 Q1015 TEMPO 3000 SHRA SCT011TCU BKN013

Decode

TAF

TAF LFRQ 271100Z 2712/2812 19013KT 9999 BKN021 TEMPO 2712/2717 3000 SHRA SCT011TCU BKN013 BECMG 2717/2719 VRB03KT PROB30 TEMPO 2721/2807 3000 BR OVC003

Decode

Destination Runways

ID Width Length Bearing (true) Bearing (mag) Surface Threshold Offset Overrun Length
04 148 ft / 45 m 3,632 ft / 1,107 m 32.51° 33.88° Asphalt 1,148 ft / 350 m 0 ft / 0 m
10 148 ft / 45 m 7,035 ft / 2,144 m 93.49° 94.86° Asphalt 344 ft / 105 m 197 ft / 60 m
22 148 ft / 45 m 3,632 ft / 1,107 m 212.52° 213.89° Asphalt 0 ft / 0 m 0 ft / 0 m
28 148 ft / 45 m 7,035 ft / 2,144 m 273.51° 274.88° Asphalt 0 ft / 0 m 0 ft / 0 m

Approach Navaids

Runway Type Ident Frequency Range Bearing (true) Bearing (mag) Slope Elevation
28 Localiser QR 110.30 MHz 18 nm / 33 km 273.51° 274.88° - 295 ft / 90 m (AMSL)
28 Glidescope QR 110.30 MHz 10 nm / 19 km 273.50° 274.87° 3.00° 295 ft / 90 m (AMSL)
28 DME QR 110.30 MHz 18 nm / 33 km - - - 332 ft / 101 m (AMSL)

Popular Alternatives